Dewpoint
10 7 0 5 6 8 7 6 5 7 11 12 11 10 9 8 6 4 5 7 8 9 9 10 10 10 11 11 11 10 11 11 10 10 10 10 10 11 11 12 12 11 10
12 9 0 5 7 8 7 6 5 7 10 12 12 11 10 8 7 4 5 7 9 9 10 10 10 10 11 11 10 11 11 9 9 9 9 8 9 10 11 11 10 8 11
14 10 8 6 8 8 7 6 6 6 9 11 12 11 10 9 7 4 6 8 9 10 10 10 10 10 10 10 11 10 10 10 10 9 12 10 9 9 8 9 8 8 11
13 12 11 7 10 9 7 7 6 6 8 10 12 11 10 9 7 4 6 7 9 9 10 10 10 11 10 10 11 9 8 9 10 12 13 13 10 9 10 7 8 11 11
14 14 12 9 11 9 8 7 7 6 7 9 10 9 9 10 7 5 6 7 8 9 10 10 10 9 9 9 7 7 7 9 12 12 11 12 12 9 7 9 10 11 11
14 15 13 11 11 9 8 8 7 7 7 7 8 9 9 10 7 5 6 6 7 8 8 9 8 6 6 6 6 6 6 10 12 12 7 13 12 9 9 10 11 11 12
14 16 15 12 11 9 9 8 8 7 8 8 7 9 9 9 7 4 6 6 6 6 7 7 6 4 5 6 6 5 5 11 12 12 13 11 12 9 10 10 11 11 11
15 15 15 14 11 10 10 9 9 8 8 8 8 8 9 8 6 4 5 6 7 6 6 5 5 4 5 5 5 5 4 10 12 12 11 11 11 8 9 10 11 11 10
16 16 16 15 12 11 10 10 9 9 9 9 9 8 8 8 6 5 5 6 6 7 6 4 4 4 5 5 5 5 4 11 11 11 10 12 8 8 9 9 10 10 10
13 16 16 13 13 11 11 10 10 10 9 9 9 9 8 8 7 6 6 6 6 6 6 4 5 5 5 5 5 5 5 10 11 11 10 11 9 8 8 9 9 10 10
12 15 16 14 12 11 11 11 11 10 10 10 10 9 9 8 6 7 7 7 7 7 6 5 6 6 6 6 5 5 5 11 11 10 11 11 9 8 9 9 9 10 11
-1 11 15 16 15 13 12 12 11 11 10 10 10 10 10 8 6 6 7 7 7 7 6 6 7 6 7 7 6 6 8 11 11 11 11 11 9 7 9 8 8 10 10
-12 -6 12 15 16 15 14 15 12 11 11 10 10 10 10 8 7 8 8 8 7 7 7 6 7 7 7 10 10 9 7 12 11 9 10 10 9 7 7 9 8 9 10
-12 -10 -3 13 14 14 15 15 15 12 11 11 10 10 10 9 10 11 12 10 9 8 8 7 8 7 8 11 12 11 10 11 11 11 9 9 10 7 7 7 8 8 9
-11 -10 -9 1 13 14 15 15 15 14 12 12 11 10 10 10 11 13 13 13 11 9 9 8 9 9 10 11 12 11 11 10 11 11 11 11 10 8 7 7 7 8 8
-11 -11 -8 -7 9 13 14 13 14 14 14 13 12 12 12 12 12 13 13 13 13 12 12 11 12 12 10 11 10 11 11 10 10 10 10 9 9 9 8 8 7 7 8
-10 -9 -11 -9 -5 14 13 12 14 14 14 13 13 13 11 13 13 13 13 13 13 14 13 12 12 13 12 10 11 10 10 11 10 10 10 10 10 9 10 9 8 7 7
-5 -10 -10 -10 -10 4 13 13 13 13 13 14 13 14 14 12 12 13 13 13 13 13 12 13 12 11 11 11 11 10 10 10 11 10 10 10 10 9 9 10 10 9 8
-2 -0 -9 -8 -10 -9 3 12 11 14 14 13 14 14 14 14 12 13 13 13 13 13 12 13 12 12 12 12 11 11 11 10 10 10 10 10 10 10 10 10 10 10 10
-0 2 3 -6 -8 -7 -9 9 12 10 13 13 13 13 14 14 12 12 14 13 13 13 13 13 12 13 13 11 11 11 11 11 11 11 11 10 10 10 11 10 10 11 10
0 3 4 4 -0 -7 -7 -4 10 12 12 13 13 14 14 14 13 12 14 13 13 12 13 13 12 12 13 12 12 11 11 11 11 11 11 11 10 9 11 10 11 10 11
-1 2 3 4 3 2 -7 -5 7 11 12 12 14 13 12 14 12 12 13 13 13 11 14 14 11 12 13 12 12 11 12 11 11 11 10 11 11 11 10 10 11 10 10
-1 1 2 2 4 4 -4 -6 -6 9 11 11 12 14 12 12 12 11 13 14 13 11 12 14 12 11 12 13 12 11 11 11 11 10 11 11 10 11 11 10 10 11 10
-2 -0 1 1 4 4 -2 -5 -5 -4 11 11 11 14 14 12 10 12 11 14 13 13 11 13 13 13 12 11 12 12 12 11 10 11 11 11 10 11 11 10 10 10 9
-3 -1 1 1 1 3 3 -3 -5 -4 -2 11 10 13 13 14 13 10 11 12 14 13 11 10 11 12 13 10 11 11 10 10 10 11 10 10 11 10 9 9 9 8 9
-4 -3 -0 2 1 1 2 0 -2 -3 -4 5 11 12 12 14 14 13 12 11 14 13 13 11 9 11 10 8 8 9 10 7 7 10 10 9 10 10 10 10 10 9 9
Wind_Speed
5 4 18 18 16 16 15 13 12 11 13 15 12 10 9 8 8 9 10 11 11 11 11 10 8 7 5 6 7 5 4 4 5 10 12 15 17 16 15 15 13 13 12
6 4 16 19 17 16 16 14 12 11 12 14 13 12 10 8 8 9 10 10 10 10 9 8 7 6 6 5 3 2 4 5 7 8 8 8 7 12 12 13 12 8 10
10 8 13 20 18 17 16 15 13 12 13 14 13 12 11 9 9 10 11 11 10 9 9 8 7 6 6 3 2 4 5 6 9 11 9 3 6 7 3 8 5 6 8
9 12 14 22 20 18 17 16 14 13 13 15 14 13 13 11 10 11 11 11 10 9 8 7 7 6 4 3 3 3 4 7 9 11 6 3 3 7 7 4 6 8 9
10 15 15 24 22 19 17 17 15 14 14 16 15 14 13 12 11 11 11 11 10 8 7 6 5 5 4 3 2 2 6 9 11 7 5 7 2 6 5 6 8 8 9
9 11 12 25 23 20 18 17 16 15 16 16 16 16 14 13 12 12 12 11 9 7 6 5 5 4 4 3 2 3 9 10 6 3 6 10 2 4 7 8 8 9 10
5 10 9 20 23 21 19 18 16 15 17 17 16 17 16 14 13 13 12 12 11 9 7 6 5 4 4 3 3 4 9 10 11 4 10 3 2 3 7 8 8 10 9
6 10 11 11 22 21 19 18 16 16 17 17 17 17 17 16 15 14 13 12 11 9 8 7 6 5 5 4 4 5 8 9 9 3 3 0 4 1 5 8 7 7 8
5 10 10 14 22 22 21 19 17 17 17 18 18 18 18 17 16 16 15 14 12 10 8 7 7 6 5 5 5 6 8 8 7 3 5 2 4 2 5 6 6 7 8
1 12 14 13 23 25 23 21 19 18 18 19 19 20 19 19 18 18 17 15 13 12 10 9 8 8 6 6 5 6 8 9 6 2 8 4 6 2 6 5 5 6 7
5 8 14 14 19 26 25 23 22 20 20 20 21 22 21 22 21 20 18 17 15 14 12 11 10 9 7 6 6 6 10 9 3 3 5 6 6 3 6 6 5 6 8
15 10 13 16 14 22 23 26 25 24 24 24 26 25 25 24 23 22 21 19 18 16 14 14 13 11 9 7 6 5 9 7 5 4 6 8 5 5 7 8 8 9 8
20 19 14 19 19 20 20 23 25 28 28 28 28 29 27 26 25 24 23 23 21 20 18 17 16 14 11 6 1 3 6 3 3 9 7 8 7 7 6 9 10 10 10
19 19 16 19 23 24 20 26 25 28 31 32 32 31 30 29 27 26 23 24 24 23 20 19 18 16 13 12 11 11 3 7 9 12 7 9 11 9 8 9 10 12 14
19 21 21 14 24 28 30 26 28 24 29 32 33 33 32 32 31 28 27 25 24 24 22 19 17 14 13 12 12 12 10 11 9 4 5 8 9 10 11 10 11 12 15
23 24 23 20 20 29 31 33 28 27 28 29 31 34 34 33 34 31 32 27 24 24 19 17 14 15 10 14 14 14 13 12 12 11 12 10 12 11 11 12 13 13 16
24 25 26 27 19 31 33 32 34 33 30 34 32 32 33 35 34 31 31 30 28 26 23 23 21 20 17 16 14 15 13 15 13 13 14 12 12 12 11 11 14 15 15
26 26 28 28 30 19 34 34 37 36 39 31 35 35 36 34 37 33 32 33 31 30 26 25 25 20 21 17 17 16 14 16 15 16 14 16 15 13 14 13 13 15 16
25 29 28 27 32 34 26 39 37 42 36 42 36 37 38 37 39 37 32 32 30 29 28 30 25 22 26 23 17 15 13 13 15 16 19 18 18 16 14 15 16 16 16
30 27 27 31 33 32 37 35 42 42 44 38 39 43 38 42 40 41 33 34 30 33 32 31 27 23 25 25 23 21 17 19 15 13 14 16 16 20 21 19 16 16 18
31 27 27 29 26 40 38 32 41 43 47 42 47 45 41 43 43 48 38 38 34 33 32 30 30 27 24 20 21 19 21 22 21 23 18 20 22 22 17 19 22 20 20
37 30 36 33 32 34 43 42 34 46 48 53 44 53 53 41 43 53 44 42 38 38 31 30 31 30 23 24 22 23 20 22 26 27 28 27 24 22 21 21 21 21 24
40 33 37 34 27 31 40 44 47 41 47 45 49 46 46 52 47 45 53 41 42 39 41 30 29 31 32 26 27 21 10 14 11 15 18 20 27 24 24 20 23 23 21
39 38 38 35 29 19 37 42 44 41 45 49 54 48 43 49 51 50 50 48 43 39 40 34 32 30 28 31 27 30 26 16 7 5 12 15 13 21 27 26 28 28 27
38 35 38 36 30 23 21 34 42 44 42 48 54 48 46 48 50 49 46 52 45 36 32 38 40 35 31 28 33 29 29 28 32 31 23 19 18 19 22 26 20 20 27
35 33 32 33 30 28 26 27 37 45 45 45 51 52 45 46 49 49 47 44 53 41 36 40 40 37 34 33 32 32 29 27 36 32 30 27 25 26 24 22 24 22 22
Wind_Direction
199 182 183 177 176 170 169 168 165 168 173 178 178 177 168 156 148 141 144 145 149 146 147 151 152 159 161 154 150 162 174 149 135 132 124 122 110 107 111 114 106 98 100
195 176 198 185 182 178 172 171 169 169 180 184 184 180 175 168 156 147 148 146 151 148 152 153 148 150 148 146 148 172 136 123 121 117 111 105 96 122 118 111 102 97 129
243 237 216 198 187 186 177 174 173 172 184 190 189 186 176 177 167 156 155 152 154 151 151 151 150 149 147 149 132 119 103 98 98 88 86 91 120 130 118 123 108 132 138
272 236 233 204 191 188 182 179 177 175 184 193 193 191 182 182 176 165 161 162 161 154 155 153 149 146 147 141 135 117 87 93 100 100 84 97 118 146 130 119 119 128 134
231 237 236 205 192 190 188 184 182 180 185 193 196 194 190 186 184 175 170 168 169 165 164 159 151 148 146 147 149 107 87 103 112 126 79 131 20 156 138 134 129 133 141
199 254 234 198 193 191 191 190 188 185 188 193 199 197 194 192 187 184 181 171 175 173 173 170 163 154 157 158 143 105 102 115 115 181 172 146 190 175 153 145 133 130 139
197 226 246 201 195 194 194 195 193 191 192 195 200 202 197 197 192 188 187 183 181 183 180 182 177 165 163 151 136 118 120 107 57 5 132 126 176 183 149 135 136 144 147
239 243 238 230 205 197 198 201 198 198 197 199 201 204 203 201 196 192 191 193 189 188 187 184 183 168 164 152 141 125 126 124 70 47 310 263 350 153 147 137 143 149 152
191 265 251 244 216 204 202 205 204 204 203 202 204 205 206 207 201 197 195 197 197 193 193 188 183 174 166 156 142 128 130 120 78 79 272 16 23 172 143 145 153 159 160
313 243 263 263 215 208 205 207 207 207 209 207 206 207 207 209 207 202 200 201 200 199 197 193 189 184 177 168 155 139 129 127 91 353 328 11 333 295 163 167 170 174 172
311 217 262 266 224 212 210 211 208 208 209 209 211 210 210 209 208 208 205 205 205 203 198 198 196 195 190 187 174 157 142 127 112 260 276 286 314 257 193 184 195 186 180
306 278 238 260 250 222 215 217 212 210 209 208 210 211 211 211 210 210 209 209 206 206 202 201 202 201 202 204 206 179 150 150 185 246 271 294 274 245 215 204 198 194 192
292 291 248 234 241 233 222 231 223 214 212 211 211 213 213 211 213 210 212 210 207 206 207 205 207 205 206 194 238 208 185 124 217 266 258 267 288 249 223 212 211 210 217
292 286 289 244 244 237 221 220 237 229 217 214 214 215 212 209 210 208 217 214 212 210 211 211 213 213 200 186 220 247 164 197 244 231 238 268 277 258 234 222 217 223 224
303 292 282 299 243 230 222 218 224 233 229 222 218 216 215 209 211 207 213 218 216 216 215 215 222 216 205 192 218 234 227 223 237 267 251 251 278 270 246 235 233 234 226
296 291 273 272 274 237 231 219 223 224 222 226 221 221 216 211 215 211 210 213 213 215 213 216 215 221 216 215 223 230 231 235 231 236 257 266 276 284 275 256 241 239 232
300 291 289 276 288 244 239 239 219 227 215 227 220 220 221 213 212 215 217 213 209 211 205 211 210 211 210 230 229 232 233 232 234 236 243 253 265 274 279 283 258 249 243
315 293 283 279 268 274 245 241 233 228 223 212 216 215 220 218 210 216 220 218 211 216 202 212 215 210 217 217 230 234 226 233 233 233 238 245 251 259 268 268 269 263 256
317 335 288 285 275 265 265 244 240 227 228 218 217 211 218 218 212 211 214 220 216 215 219 211 211 217 215 213 205 233 236 239 223 239 242 244 240 252 256 261 259 265 261
301 311 325 290 279 272 264 253 239 235 226 229 213 216 216 217 217 207 210 216 217 217 219 218 210 220 230 230 219 223 230 226 235 239 241 243 245 238 250 254 257 253 259
300 299 306 298 280 274 267 267 244 234 230 226 219 213 211 221 219 210 202 211 209 213 218 219 215 216 226 215 226 229 235 238 239 238 239 247 248 242 244 251 251 253 257
318 308 317 295 277 275 261 260 256 242 232 229 223 222 214 221 220 211 202 206 207 213 214 222 216 209 214 207 215 221 235 244 247 249 244 238 242 247 248 246 252 255 257
327 317 311 298 295 274 260 259 255 254 240 235 227 221 223 218 223 216 205 197 213 209 210 219 219 212 213 216 221 226 220 231 257 259 251 245 242 241 251 241 240 246 249
325 316 302 300 303 281 260 253 251 253 238 231 227 219 217 213 224 223 215 201 213 213 211 208 223 219 215 221 225 229 224 226 250 238 250 251 250 235 239 242 247 248 249
327 328 316 305 300 280 276 254 255 253 253 237 233 223 211 214 215 227 220 209 203 218 211 206 219 221 220 222 224 230 239 250 255 252 246 257 254 245 244 246 256 246 242
330 333 328 314 302 298 279 258 246 255 248 248 230 222 211 205 209 219 220 218 208 205 214 213 216 217 225 220 224 230 229 225 246 249 245 253 259 263 256 254 252 262 266
Height
1487 1488 1490 1492 1495 1498 1500 1503 1506 1509 1512 1515 1518 1520 1521 1523 1524 1525 1526 1528 1530 1530 1532 1533 1535 1536 1537 1538 1538 1538 1538 1538 1539 1541 1542 1542 1542 1543 1543 1544 1546 1546 1546
1487 1488 1490 1492 1495 1498 1501 1503 1506 1509 1512 1514 1518 1520 1522 1524 1524 1526 1528 1529 1531 1531 1533 1535 1536 1537 1537 1539 1539 1538 1539 1540 1542 1544 1545 1546 1545 1545 1545 1544 1547 1547 1550
1488 1488 1490 1492 1495 1498 1501 1503 1506 1509 1512 1514 1517 1521 1522 1525 1526 1527 1528 1530 1532 1534 1534 1535 1537 1538 1539 1540 1539 1539 1541 1543 1545 1547 1548 1547 1548 1549 1548 1547 1547 1550 1552
1486 1487 1490 1492 1495 1498 1501 1504 1506 1509 1512 1515 1517 1520 1522 1525 1527 1528 1529 1531 1533 1535 1536 1536 1538 1539 1540 1540 1540 1541 1543 1546 1548 1549 1550 1551 1550 1551 1551 1550 1549 1550 1553
1487 1486 1487 1491 1494 1497 1500 1503 1506 1509 1512 1514 1517 1519 1522 1525 1527 1528 1530 1531 1534 1535 1537 1538 1539 1540 1541 1541 1541 1542 1545 1547 1549 1550 1549 1550 1551 1553 1553 1552 1551 1552 1554
1489 1485 1487 1490 1495 1497 1500 1504 1506 1509 1512 1514 1517 1520 1522 1525 1527 1529 1530 1532 1534 1535 1537 1539 1539 1540 1541 1542 1542 1543 1546 1548 1550 1548 1544 1551 1553 1555 1554 1553 1552 1554 1557
1490 1488 1488 1491 1495 1498 1500 1503 1505 1509 1511 1514 1517 1520 1522 1524 1527 1529 1531 1533 1534 1536 1538 1539 1540 1541 1542 1543 1543 1543 1546 1549 1551 1549 1546 1552 1554 1556 1554 1554 1554 1556 1559
1490 1490 1491 1493 1495 1498 1501 1504 1506 1509 1511 1514 1516 1520 1522 1524 1526 1528 1530 1533 1534 1536 1538 1539 1541 1541 1543 1544 1544 1544 1546 1548 1550 1551 1551 1549 1552 1554 1554 1555 1556 1559 1561
1493 1489 1492 1493 1495 1497 1500 1503 1506 1508 1510 1513 1515 1518 1522 1524 1526 1528 1529 1532 1534 1536 1538 1539 1540 1542 1543 1544 1545 1546 1547 1548 1549 1550 1549 1552 1552 1553 1555 1557 1558 1560 1562
1491 1491 1491 1491 1493 1496 1499 1501 1504 1507 1510 1512 1514 1517 1520 1523 1526 1527 1529 1531 1533 1535 1537 1539 1540 1541 1543 1544 1545 1546 1548 1549 1551 1550 1550 1551 1552 1554 1555 1557 1559 1561 1562
1490 1491 1490 1490 1491 1494 1497 1499 1502 1504 1507 1510 1513 1515 1518 1520 1523 1526 1528 1529 1532 1533 1536 1538 1539 1541 1542 1543 1545 1546 1548 1549 1552 1552 1552 1552 1553 1554 1556 1557 1559 1560 1562
1493 1489 1489 1489 1490 1492 1495 1496 1499 1502 1504 1506 1509 1512 1515 1519 1521 1524 1526 1528 1529 1532 1534 1536 1538 1540 1541 1542 1544 1546 1548 1549 1550 1551 1552 1553 1554 1554 1555 1556 1558 1559 1561
1492 1492 1489 1488 1488 1491 1494 1494 1496 1498 1500 1503 1505 1508 1512 1516 1519 1521 1523 1525 1527 1529 1531 1534 1536 1537 1540 1541 1543 1546 1548 1548 1550 1551 1552 1552 1553 1554 1555 1556 1557 1558 1560
1491 1489 1491 1486 1487 1488 1491 1493 1492 1495 1496 1498 1501 1504 1508 1512 1515 1519 1520 1523 1524 1526 1529 1531 1534 1536 1538 1540 1543 1544 1546 1548 1548 1549 1550 1551 1552 1553 1554 1555 1556 1556 1558
1488 1486 1484 1487 1482 1484 1487 1492 1489 1490 1491 1494 1497 1500 1503 1508 1510 1514 1518 1520 1522 1524 1526 1529 1531 1534 1536 1539 1541 1543 1544 1546 1548 1547 1548 1549 1551 1551 1552 1553 1554 1555 1555
1486 1485 1480 1480 1483 1478 1481 1486 1488 1487 1488 1490 1492 1494 1499 1503 1507 1510 1513 1517 1519 1521 1524 1526 1529 1531 1535 1537 1540 1541 1543 1545 1546 1547 1547 1548 1549 1549 1550 1551 1551 1552 1553
1484 1482 1481 1477 1478 1477 1475 1479 1482 1484 1487 1486 1489 1490 1494 1498 1501 1506 1510 1512 1516 1519 1522 1525 1528 1531 1532 1535 1537 1538 1540 1541 1543 1544 1545 1546 1546 1547 1547 1547 1548 1549 1550
1480 1479 1477 1476 1475 1475 1473 1472 1476 1477 1480 1482 1483 1487 1487 1492 1496 1499 1504 1508 1512 1515 1519 1521 1524 1527 1530 1532 1533 1535 1537 1539 1540 1542 1542 1543 1544 1544 1545 1546 1546 1546 1547
1472 1470 1472 1472 1469 1469 1469 1469 1468 1472 1474 1475 1477 1481 1482 1485 1489 1492 1498 1503 1509 1512 1515 1518 1520 1522 1525 1529 1531 1532 1533 1535 1537 1538 1539 1540 1542 1542 1542 1543 1544 1544 1544
1468 1465 1465 1465 1463 1462 1463 1462 1461 1461 1465 1466 1470 1473 1476 1476 1482 1486 1492 1498 1503 1507 1509 1513 1516 1519 1521 1525 1528 1529 1531 1532 1533 1533 1534 1536 1537 1539 1539 1539 1540 1540 1541
1462 1459 1456 1456 1453 1456 1454 1454 1454 1454 1453 1459 1461 1464 1469 1470 1476 1480 1484 1489 1494 1498 1503 1507 1511 1515 1517 1521 1523 1526 1527 1528 1529 1530 1532 1532 1532 1533 1535 1536 1536 1537 1537
1460 1454 1452 1447 1445 1446 1446 1446 1447 1447 1445 1449 1454 1456 1460 1459 1467 1473 1475 1481 1486 1492 1497 1501 1505 1509 1512 1517 1518 1521 1522 1524 1523 1524 1525 1526 1526 1528 1529 1530 1530 1532 1532
1457 1451 1443 1441 1437 1436 1437 1438 1439 1439 1440 1441 1444 1446 1448 1452 1456 1463 1468 1474 1478 1484 1489 1495 1499 1501 1506 1510 1513 1515 1517 1517 1517 1517 1518 1519 1521 1521 1522 1523 1525 1526 1527
1455 1448 1441 1433 1428 1425 1430 1429 1429 1431 1430 1429 1432 1435 1438 1445 1445 1452 1459 1467 1469 1476 1482 1486 1489 1494 1498 1503 1508 1508 1510 1512 1513 1512 1513 1513 1513 1516 1517 1517 1518 1520 1521
1455 1445 1435 1427 1421 1416 1414 1420 1420 1419 1421 1422 1421 1426 1428 1433 1436 1439 1449 1455 1462 1466 1474 1478 1479 1485 1489 1494 1498 1500 1502 1506 1510 1509 1503 1508 1509 1511 1513 1513 1514 1513 1514
1451 1441 1432 1424 1416 1411 1409 1407 1407 1410 1411 1413 1413 1414 1417 1424 1427 1431 1439 1446 1454 1461 1465 1467 1470 1475 1480 1483 1485 1488 1490 1487 1493 1501 1498 1498 1505 1507 1508 1507 1507 1508 1508